SCP
0 0 0 0 0 0 0 0 0 0 0 0 0 0 0 0 0 0 0 0 0 0 0 -0 -0 -0 0 0 0 0 0 0 0 0 0 0 0 0 0 0 0 0 0 0
0 0 0 0 0 0 0 0 0 0 0 0 0 0 0 0 0 0 0 0 0 0 0 -0 -0 -0 0 0 0 0 0 0 0 0 0 0 0 0 0 0 0 0 0 0
0 0 0 0 0 0 0 0 0 0 0 0 0 0 0 0 0 0 0 0 0 0 -0 -0 -0 -0 0 0 0 0 0 0 0 0 0 0 0 0 0 0 0 0 0 0
0 0 0 0 0 0 0 0 0 0 0 0 0 0 0 0 0 0 0 0 0 0 -0 -0 -0 -0 0 0 0 0 0 0 0 0 0 0 0 0 0 0 0 0 0 0
0 0 0 0 0 0 0 0 0 0 0 0 0 0 0 0 0 0 0 0 0 0 0 0 0 0 -0 -0 -0 0 0 0 0 0 0 0 0 0 0 0 0 0 0 0
0 0 0 0 0 0 0 0 0 0 0 0 0 0 0 0 0 0 0 0 0 0 0 0 0 0 -0 -0 -0 0 0 0 0 0 0 0 0 0 0 0 0 0 0 0
0 0 0 0 0 0 0 0 0 0 0 0 0 0 0 0 0 0 0 0 0 0 0 0 0 0 -0 -0 -0 -0 0 0 0 0 0 0 0 0 0 0 0 0 0 0
0 0 0 0 0 0 0 0 0 0 0 0 0 0 0 0 0 0 0 0 0 0 0 0 0 0 0 0 -0 -0 -0 0 0 0 0 0 0 0 0 0 0 0 0 0
0 0 0 0 0 0 0 0 0 0 0 0 0 0 0 0 0 0 0 0 0 0 0 0 0 0 0 0 -0 -0 -0 0 0 0 0 0 0 0 0 0 0 0 0 0
0 0 0 0 0 0 0 0 0 0 0 0 0 0 0 0 0 0 0 0 0 0 0 0 0 0 0 0 -0 -0 -0 0 0 0 0 0 0 0 0 0 0 0 0 0
0 0 0 0 0 0 0 0 0 0 0 0 0 0 0 0 0 0 0 0 0 0 0 0 0 0 0 0 0 0 0 0 0 0 0 0 0 0 0 0 0 0 0 0
0 0 0 0 0 0 0 0 0 0 0 0 0 0 0 0 0 0 0 0 0 0 0 0 0 0 0 0 0 0 0 0 0 0 0 0 0 0 0 0 0 0 0 0
0 0 0 0 0 0 0 0 0 0 0 0 0 0 0 0 0 0 0 0 0 0 0 0 0 0 0 0 0 0 0 0 0 0 0 0 0 0 0 0 0 0 0 0
0 0 0 0 0 0 0 0 0 0 0 0 0 0 0 0 0 0 0 0 0 0 0 0 0 0 0 0 0 0 0 0 0 0 0 0 0 0 0 0 0 0 0 0
0 0 0 0 0 0 0 0 0 0 0 0 0 0 -0 -0 -0 0 0 0 0 0 0 0 0 0 0 0 0 0 0 0 0 0 0 0 0 0 0 0 0 0 0 0
0 0 0 0 0 0 0 0 0 0 0 0 0 0 -0 -0 -0 0 0 0 0 0 0 0 0 0 0 0 0 0 0 0 0 0 0 0 0 0 0 0 0 0 0 0
0 0 0 0 0 0 0 0 0 0 0 0 0 0 -0 -0 -0 0 0 0 0 0 0 0 0 0 0 0 0 0 0 0 0 0 0 0 0 0 0 0 0 0 0 0
0 0 0 0 0 0 0 0 0 0 0 0 0 0 0 0 0 0 0 0 0 0 0 0 0 0 0 0 0 0 0 0 0 0 0 0 0 0 0 0 0 0 0 0
0 0 0 0 0 0 0 0 0 0 0 0 0 0 0 0 0 0 0 0 0 0 0 0 0 0 0 0 0 0 0 0 0 0 0 0 0 0 0 0 0 0 0 0
0 0 0 0 0 0 0 0 0 0 0 0 0 0 0 0 0 0 0 0 0 0 0 0 0 0 0 0 0 0 0 0 0 0 0 0 0 0 0 0 0 0 0 0
-0 0 0 0 0 0 0 0 0 0 0 0 0 0 0 0 0 0 0 0 0 0 0 0 0 0 0 0 0 0 0 0 0 0 0 0 0 0 0 0 0 0 0 0
-0 -0 0 0 0 0 0 0 0 0 0 0 0 0 0 0 0 0 0 0 0 0 0 0 0 0 0 0 0 0 0 0 0 0 0 0 0 0 0 0 0 0 0 0
-0 -0 0 0 0 0 0 0 0 -0 0 0 0 0 0 0 0 0 0 0 0 0 0 0 0 0 0 0 0 0 0 0 0 0 0 0 0 0 0 0 0 0 0 0
0 -0 0 0 0 0 0 0 0 0 0 0 0 0 0 0 0 0 0 0 0 0 0 0 0 0 0 0 0 0 0 0 0 0 0 0 0 0 0 0 0 0 0 0
0 0 0 0 0 0 0 0 0 0 0 0 0 0 0 0 0 0 0 0 0 0 0 0 0 0 0 0 0 0 0 0 0 0 0 0 0 0 0 0 0 0 0 0
0 0 0 0 0 0 0 0 0 0 0 0 0 0 0 0 0 0 0 0 0 0 0 0 0 0 0 0 0 0 0 0 0 0 0 0 0 0 0 0 0 0 0 0
0 0 0 0 0 0 0 0 0 0 0 0 0 0 0 0 0 0 0 0 0 0 0 0 0 0 0 0 0 0 0 0 0 0 0 0 0 0 0 0 0 0 0 0
Wind_Speed
6 5 5 7 9 10 12 11 10 9 10 11 8 7 6 5 5 6 6 6 5 5 4 3 3 3 2 2 2 2 2 2 3 3 3 3 3 3 3 4 4 5 5 5
4 3 5 9 13 14 14 14 15 15 15 10 7 5 5 6 6 7 7 7 6 5 4 4 4 3 3 3 2 2 3 3 3 3 3 3 3 3 4 4 4 5 5 6
4 2 6 11 11 13 10 11 11 13 10 3 4 5 6 6 7 7 7 6 6 5 5 4 4 3 3 3 2 3 3 3 3 3 3 3 3 4 4 5 5 5 6 6
3 3 9 2 2 5 9 10 11 11 8 6 6 4 4 5 6 6 6 5 5 4 4 4 3 3 3 3 3 3 4 4 3 3 4 4 4 5 5 5 5 6 6 7
3 6 10 5 3 5 7 7 8 11 10 5 2 3 3 3 4 5 5 4 3 3 3 3 3 3 3 3 3 4 4 4 4 4 4 4 5 6 5 5 6 6 6 7
5 6 8 1 3 3 3 5 3 6 6 4 4 4 1 1 2 3 2 2 2 2 2 3 2 2 3 3 4 4 4 4 4 4 5 6 6 6 5 5 6 6 7 8
9 9 10 2 4 6 5 2 2 4 5 6 6 3 1 0 2 2 2 2 2 2 2 2 2 3 4 4 5 4 4 4 5 5 5 6 6 6 6 6 6 7 8 8
8 9 10 5 8 8 3 1 2 3 4 6 6 4 3 3 3 3 2 2 2 3 3 3 3 4 5 5 5 4 4 5 5 6 5 5 6 6 6 6 7 8 8 9
9 8 2 5 6 4 2 3 3 4 5 6 6 6 5 5 4 4 4 3 3 4 4 3 4 5 6 5 4 4 5 5 5 6 5 5 6 7 6 6 6 6 7 8
9 11 8 8 9 8 7 7 6 5 5 5 7 7 6 5 5 5 5 4 4 4 5 4 4 5 6 5 4 5 6 6 5 6 6 6 5 5 6 6 6 7 7 8
11 11 9 9 10 9 8 8 7 7 7 7 7 8 8 7 6 5 5 4 4 5 5 6 5 5 6 5 5 6 6 6 6 6 6 6 6 6 7 8 8 8 8 8
11 9 8 8 5 6 7 8 8 8 7 7 8 8 8 7 6 5 5 5 5 6 6 6 5 6 6 5 6 6 6 6 5 5 5 6 6 7 9 11 13 15 15 14
12 9 9 9 8 7 8 8 7 7 8 8 7 7 7 6 5 5 5 6 6 6 6 6 6 6 6 5 6 7 7 6 5 5 6 6 6 7 8 8 11 14 15 16
11 8 9 9 9 8 7 7 6 6 6 6 5 5 5 5 5 6 6 6 5 5 6 6 6 7 6 5 6 7 7 7 7 6 6 6 6 7 7 8 8 8 9 12
10 10 10 8 7 6 5 4 5 6 5 5 4 5 5 6 6 6 5 4 4 5 6 6 7 8 6 5 6 7 7 6 6 6 6 6 7 7 7 8 8 9 8 8
7 7 8 8 8 7 6 6 7 7 6 5 5 6 6 6 6 5 5 5 5 7 7 7 8 7 5 5 6 6 6 8 8 6 6 6 6 7 7 7 8 8 8 8
7 7 7 7 8 7 7 7 7 6 6 6 6 5 5 5 5 5 5 5 6 7 7 7 8 7 6 6 6 5 5 6 8 7 7 7 7 7 7 8 8 8 8 9
9 9 7 7 7 7 6 6 5 5 5 5 4 4 5 5 6 6 5 5 5 7 8 8 7 6 6 6 5 5 5 6 6 6 7 7 7 7 7 8 9 10 9 9
5 5 5 5 5 4 4 4 4 4 4 3 4 5 5 5 5 5 5 5 6 8 7 5 6 6 7 7 6 5 6 6 7 7 7 9 8 7 7 8 8 9 8 8
2 2 2 2 2 2 3 3 3 3 3 3 3 4 4 5 5 5 5 6 7 6 6 6 6 6 6 6 6 5 6 7 7 7 7 7 7 8 8 8 8 8 8 8
2 1 1 1 2 2 2 2 3 3 3 3 4 5 5 5 5 4 5 7 7 6 6 8 6 6 5 6 7 6 6 7 7 7 7 7 8 8 8 8 8 8 8 8
2 2 2 2 2 3 2 2 3 3 3 4 4 5 5 6 6 6 7 7 7 7 6 5 5 7 8 8 6 7 7 8 7 7 7 8 8 8 8 8 8 7 7 7
3 3 3 3 3 4 4 4 4 4 5 5 6 6 7 6 5 5 7 5 5 7 6 6 8 11 12 8 7 7 8 8 8 8 8 8 8 8 8 8 8 7 7 7
4 4 4 4 3 4 5 5 5 4 5 6 7 7 7 6 6 6 6 8 9 10 7 9 12 13 12 7 7 7 7 8 8 8 8 8 7 7 7 7 7 7 7 8
4 4 4 4 4 5 5 5 5 6 6 6 7 7 6 6 6 6 6 7 9 10 8 9 12 13 9 7 7 7 7 7 8 7 7 7 7 7 7 7 7 7 6 6
5 5 5 5 5 5 4 4 5 5 5 6 6 5 5 5 6 7 6 7 9 10 9 7 7 8 6 7 7 7 7 8 8 7 7 7 7 7 7 7 8 6 6 6
5 5 4 5 5 5 4 5 5 6 5 6 7 6 5 5 6 6 7 7 7 7 7 6 6 6 6 7 7 7 7 7 7 7 7 6 6 6 6 7 6 6 5 5
Wind_Direction
268 276 259 251 242 221 220 232 245 256 257 267 270 260 246 231 213 203 200 199 200 206 206 206 211 222 233 244 252 257 261 267 277 285 286 282 281 280 280 278 276 275 273 270
266 254 259 263 251 237 235 240 247 263 269 272 278 264 245 230 218 215 213 210 211 216 221 222 226 233 238 247 255 253 257 266 276 277 278 278 282 284 281 279 278 274 271 272
260 292 287 260 240 219 216 220 226 240 253 261 251 247 243 233 223 223 221 218 218 221 225 230 234 236 242 251 252 252 260 269 272 274 279 285 289 284 281 281 281 278 274 273
271 273 248 258 93 212 225 240 230 247 263 268 269 279 268 244 232 229 224 222 225 229 233 234 231 234 240 243 243 250 257 263 268 273 278 284 283 280 280 278 276 278 277 276
229 258 273 271 208 190 212 256 228 236 251 260 271 260 240 229 241 239 235 234 239 235 227 220 220 222 226 236 243 251 258 265 270 273 276 277 277 279 281 279 278 277 277 276
220 243 254 261 133 161 204 256 199 212 231 215 192 232 219 148 232 239 235 234 236 223 215 217 213 213 228 241 248 255 264 270 272 268 267 270 274 279 280 278 278 280 276 274
227 243 264 254 143 160 222 309 131 198 211 194 209 250 357 242 231 219 217 216 210 210 219 226 218 219 236 246 253 263 268 269 270 269 268 271 274 273 274 275 275 275 276 275
205 227 250 157 158 202 259 30 196 213 211 210 228 251 247 240 236 230 225 220 217 220 231 233 224 227 242 251 262 267 266 267 269 271 271 270 271 274 273 272 274 277 279 281
210 230 313 177 214 246 271 249 242 235 229 222 236 247 247 242 238 237 236 232 226 230 241 241 230 234 249 260 265 263 264 266 270 273 272 269 269 272 274 271 270 275 278 281
248 257 259 252 252 258 253 256 259 253 245 231 241 248 247 246 245 240 236 231 229 234 244 250 244 246 255 264 261 258 262 269 272 272 273 272 267 265 266 266 269 273 275 279
251 266 277 258 245 250 251 251 253 252 247 244 248 251 249 250 250 246 240 235 233 239 248 257 255 256 259 257 254 256 262 266 268 267 269 273 270 265 265 266 267 274 276 277
249 251 248 263 261 249 246 249 249 249 251 247 241 247 249 251 251 246 242 237 237 244 250 259 260 262 261 254 249 253 259 263 264 266 269 271 276 279 260 257 271 270 270 272
256 265 263 271 272 260 255 256 252 246 250 254 252 248 248 251 248 242 240 237 240 246 254 260 261 263 262 253 247 249 255 262 264 264 266 268 271 276 286 281 269 269 270 272
250 256 260 257 258 256 255 256 256 259 260 257 256 248 242 245 244 240 241 242 246 252 257 258 259 263 263 255 249 252 257 258 257 261 264 266 268 271 275 282 289 288 279 276
250 245 252 263 263 258 252 246 249 255 257 256 248 239 234 237 241 245 248 248 249 253 255 256 258 263 263 254 251 255 258 258 258 263 264 267 269 269 270 273 276 283 288 287
255 250 248 250 254 256 253 248 249 254 254 253 248 244 243 245 249 251 249 240 243 253 257 259 262 266 265 256 253 256 256 253 256 264 266 266 266 267 269 271 274 277 280 285
242 247 244 249 253 255 252 250 252 257 254 249 248 247 243 243 248 250 250 248 252 260 264 262 265 269 262 253 252 256 262 262 258 262 263 265 266 267 269 271 273 276 277 279
245 251 249 249 250 252 255 254 253 252 252 254 251 239 235 238 246 255 263 268 271 272 266 259 260 263 260 254 251 256 260 263 262 264 266 266 267 268 270 271 273 275 280 282
251 249 250 250 246 242 246 248 249 251 253 247 240 243 249 252 256 260 265 264 265 271 274 266 257 260 263 259 255 256 257 261 264 265 266 270 271 270 270 271 273 275 279 280
270 263 257 262 256 237 240 246 245 250 250 238 239 249 257 259 256 257 259 261 260 264 275 279 274 268 265 262 256 257 257 260 264 267 268 268 270 272 272 272 273 275 276 276
296 294 270 260 274 274 257 247 242 252 259 245 241 251 261 268 264 257 260 270 273 264 266 269 266 264 264 265 263 260 259 262 264 266 267 268 270 271 272 272 273 274 274 274
294 287 279 276 279 287 284 270 259 261 266 263 261 259 264 269 268 263 254 257 272 276 276 270 266 264 268 273 266 264 264 265 266 266 266 266 267 269 271 273 273 274 272 271
277 275 274 273 274 283 288 279 265 258 259 260 259 257 258 262 263 264 273 266 266 273 274 269 269 274 279 276 267 266 267 267 267 267 267 267 267 268 270 272 272 271 272 271
268 268 271 277 281 280 281 281 275 267 264 267 263 259 259 266 266 253 257 274 278 280 276 273 277 280 282 274 268 267 268 268 268 269 269 269 267 267 268 269 270 269 269 270
277 276 272 270 269 269 272 278 280 275 271 269 269 266 255 249 258 272 275 274 276 280 278 277 279 281 278 271 268 268 269 268 269 271 268 268 268 267 268 268 268 269 269 268
271 271 269 264 264 269 272 270 270 273 275 277 279 275 269 262 261 267 272 273 274 277 276 275 277 278 273 271 270 271 271 273 274 270 267 268 268 268 268 267 268 266 266 265
273 270 270 271 267 259 258 259 264 269 269 271 279 282 280 276 273 273 275 276 277 276 275 274 273 272 273 272 273 273 272 272 271 269 268 266 266 266 266 265 265 265 265 263